Date String (YYYY-MM-DD hh:mm:ss) UTC,Instrument flags,Ambient pressure (hPa),Sample flow (lpm),Bypass flow (lpm),Sample temperature (°C),Ambient temperature (°C),ASC tube jacket temperature (°C),LED temperature (°C),Box temperature (°C),Sample RH (%),Span deviation,Mass concentration (μg/m³),Mass concentration (μg/m³),Mass concentration (μg/m³)
DateTimeUTC,F1_M11,P_M11,Q1_M11,Q2_M11,T1_M11,T2_M11,T3_M11,T4_M11,T5_M11,U1_M11,ZSPAN_M11,X2_M11,X0_M11,X1_M11
2023-02-26 04:00:00,,0821.4,5.01,0.00,22.0,20.4,00.0,30.8,23.6,14.9,0000.0,0004.21,0008.38,0003.60
2023-02-26 04:01:00,,0821.4,5.01,0.00,22.0,20.4,00.0,30.8,23.6,14.9,0000.0,0004.21,0008.47,0003.57
2023-02-26 04:02:00,,0821.4,5.00,0.00,22.0,20.4,00.0,30.8,23.6,14.9,0000.0,0004.20,0008.55,0003.53
2023-02-26 04:03:00,,0821.3,4.99,0.00,21.9,20.4,00.0,30.8,23.6,14.8,0000.0,0004.15,0008.58,0003.50
2023-02-26 04:04:00,,0821.3,5.01,0.00,21.9,20.4,00.0,30.7,23.7,14.8,0000.0,0004.12,0008.53,0003.47
2023-02-26 04:05:00,,0821.3,4.99,0.00,21.9,20.4,00.0,30.7,23.6,14.7,0000.0,0004.10,0008.58,0003.46
2023-02-26 04:06:00,,0821.2,5.00,0.00,21.9,20.4,00.0,30.7,23.6,14.6,0000.0,0004.06,0008.49,0003.43
2023-02-26 04:07:00,,0821.3,5.01,0.00,21.9,20.4,00.0,30.7,23.6,14.5,0000.0,0004.04,0008.53,0003.40
2023-02-26 04:08:00,,0821.3,4.99,0.00,21.9,20.4,00.0,30.7,23.6,14.7,0000.0,0003.99,0008.44,0003.38
2023-02-26 04:09:00,,0821.4,4.99,0.00,21.9,20.4,00.0,30.7,23.6,14.9,0000.0,0003.95,0007.99,0003.37
2023-02-26 04:10:00,,0821.4,4.99,0.00,21.9,20.4,00.0,30.7,23.5,14.9,0000.0,0003.92,0007.92,0003.36
2023-02-26 04:11:00,,0821.3,5.01,0.00,21.9,20.4,00.0,30.7,23.6,14.9,0000.0,0003.90,0007.73,0003.35
2023-02-26 04:12:00,,0821.3,4.99,0.00,21.9,20.4,00.0,30.7,23.5,14.9,0000.0,0003.88,0007.23,0003.35
2023-02-26 04:13:00,,0821.2,5.01,0.00,21.9,20.4,00.0,30.7,23.5,14.7,0000.0,0003.85,0007.08,0003.35
2023-02-26 04:14:00,,0821.2,5.02,0.00,21.9,20.3,00.0,30.7,23.5,14.7,0000.0,0003.87,0007.05,0003.35
2023-02-26 04:15:00,,0821.2,5.02,0.00,21.9,20.3,00.0,30.7,23.5,14.6,0000.0,0003.85,0007.01,0003.34
2023-02-26 04:16:00,,0821.2,5.02,0.00,21.8,20.3,00.0,30.7,23.5,14.5,0000.0,0003.81,0006.82,0003.33
2023-02-26 04:17:00,,0821.2,5.02,0.00,21.8,20.3,00.0,30.7,23.5,14.5,0000.0,0003.85,0006.91,0003.32
2023-02-26 04:18:00,,0821.1,5.00,0.00,21.8,20.3,00.0,30.7,23.4,14.5,0000.0,0003.84,0006.81,0003.31
2023-02-26 04:19:00,,0821.2,5.01,0.00,21.8,20.3,00.0,30.7,23.4,14.4,0000.0,0003.81,0006.65,0003.29
2023-02-26 04:20:00,,0821.2,4.99,0.00,21.8,20.3,00.0,30.7,23.4,14.4,0000.0,0003.77,0007.57,0003.26
2023-02-26 04:21:00,,0821.2,5.00,0.00,21.8,20.3,00.0,30.6,23.4,14.4,0000.0,0003.74,0007.57,0003.24
2023-02-26 04:22:00,,0821.2,5.01,0.00,21.8,20.3,00.0,30.6,23.4,14.5,0000.0,0003.74,0007.53,0003.22
2023-02-26 04:23:00,,0821.2,4.98,0.00,21.8,20.3,00.0,30.6,23.5,14.8,0000.0,0003.75,0007.55,0003.23
2023-02-26 04:24:00,,0821.2,5.00,0.00,21.8,20.3,00.0,30.6,23.5,14.9,0000.0,0003.79,0007.59,0003.23
2023-02-26 04:25:00,,0821.3,5.03,0.00,21.8,20.9,00.0,30.6,23.7,15.0,0000.0,0003.81,0007.72,0003.25
2023-02-26 04:26:00,,0821.3,5.03,0.00,22.0,21.9,00.0,30.6,24.0,14.9,0000.0,0003.83,0007.88,0003.28
2023-02-26 04:27:00,,0821.3,5.02,0.00,22.1,22.7,00.0,30.6,24.2,14.6,0000.0,0003.85,0007.92,0003.29
2023-02-26 04:28:00,,0821.3,5.00,0.00,22.1,22.4,00.0,30.7,24.2,14.4,0000.0,0003.81,0007.79,0003.29
2023-02-26 04:29:00,,0821.2,5.00,0.00,22.2,22.0,00.0,30.7,24.1,14.4,0000.0,0003.82,0007.80,0003.30
2023-02-26 04:30:00,,0821.2,4.98,0.00,22.2,21.7,00.0,30.8,24.1,14.4,0000.0,0003.86,0007.93,0003.34
2023-02-26 04:31:00,,0821.2,5.00,0.00,22.2,21.4,00.0,30.8,24.0,14.4,0000.0,0003.92,0007.34,0003.38
2023-02-26 04:32:00,,0821.2,4.97,0.00,22.2,21.2,00.0,30.8,24.0,14.3,0000.0,0003.99,0008.38,0003.41
2023-02-26 04:33:00,,0821.2,5.00,0.00,22.2,21.1,00.0,30.8,24.0,14.3,0000.0,0004.05,0008.98,0003.43
2023-02-26 04:34:00,,0821.2,5.00,0.00,22.2,21.0,00.0,30.8,23.9,14.3,0000.0,0004.04,0008.98,0003.43
2023-02-26 04:35:00,,0821.2,5.00,0.00,22.2,20.9,00.0,30.8,24.0,14.1,0000.0,0004.03,0008.97,0003.44
2023-02-26 04:36:00,,0821.2,5.00,0.00,22.2,20.8,00.0,30.8,23.9,14.1,0000.0,0004.01,0008.84,0003.42
2023-02-26 04:37:00,,0821.2,5.00,0.00,22.2,20.8,00.0,30.8,23.9,13.9,0000.0,0003.99,0008.64,0003.39
2023-02-26 04:38:00,,0821.2,5.00,0.00,22.2,20.8,00.0,30.9,23.9,14.8,0000.0,0004.01,0008.75,0003.39
2023-02-26 04:39:00,,0821.2,5.00,0.00,22.2,20.7,00.0,30.9,23.9,14.5,0000.0,0004.05,0009.32,0003.41
2023-02-26 04:40:00,,0821.2,5.00,0.00,22.2,20.7,00.0,30.9,23.9,14.7,0000.0,0004.07,0010.06,0003.43
2023-02-26 04:41:00,,0821.1,4.96,0.00,22.1,20.7,00.0,30.9,23.9,14.9,0000.0,0004.08,0010.08,0003.43
2023-02-26 04:42:00,,0821.2,4.98,0.00,22.1,20.7,00.0,30.9,23.9,14.8,0000.0,0004.07,0010.08,0003.43
2023-02-26 04:43:00,,0821.1,5.00,0.00,22.1,20.7,00.0,30.9,23.9,15.0,0000.0,0004.04,0009.12,0003.43
2023-02-26 04:44:00,,0821.1,5.00,0.00,22.1,20.7,00.0,30.9,23.9,15.0,0000.0,0004.01,0008.87,0003.44
2023-02-26 04:45:00,,0821.1,5.01,0.00,22.1,20.6,00.0,30.9,23.9,15.1,0000.0,0004.02,0008.81,0003.45
2023-02-26 04:46:00,,0821.1,4.99,0.00,22.1,20.5,00.0,30.9,23.9,15.5,0000.0,0004.03,0008.90,0003.46
2023-02-26 04:47:00,,0821.2,5.00,0.00,22.1,20.5,00.0,30.9,23.9,15.4,0000.0,0004.01,0009.06,0003.46
2023-02-26 04:48:00,,0821.1,4.99,0.00,22.1,20.5,00.0,30.9,23.9,15.1,0000.0,0004.05,0009.13,0003.49
2023-02-26 04:49:00,,0821.1,5.00,0.00,22.1,20.5,00.0,30.8,23.9,15.0,0000.0,0004.02,0008.96,0003.49
2023-02-26 04:50:00,,0821.1,5.00,0.00,22.1,20.4,00.0,30.8,23.8,15.0,0000.0,0003.99,0008.45,0003.49
2023-02-26 04:51:00,,0821.0,4.99,0.00,22.1,20.4,00.0,30.8,23.8,14.9,0000.0,0003.98,0007.78,0003.47
2023-02-26 04:52:00,,0821.1,5.01,0.00,22.0,20.4,00.0,30.8,23.8,14.7,0000.0,0003.98,0007.85,0003.46
2023-02-26 04:53:00,,0821.1,5.01,0.00,22.0,20.4,00.0,30.8,23.8,14.7,0000.0,0003.97,0008.11,0003.46
2023-02-26 04:54:00,,0821.1,5.00,0.00,22.0,20.4,00.0,30.8,23.8,14.7,0000.0,0003.98,0008.08,0003.46
2023-02-26 04:55:00,,0821.1,5.01,0.00,22.0,20.3,00.0,30.8,23.7,14.8,0000.0,0003.97,0007.76,0003.47
2023-02-26 04:56:00,,0821.1,5.02,0.00,22.0,20.3,00.0,30.8,23.7,14.7,0000.0,0004.02,0007.90,0003.48
2023-02-26 04:57:00,,0821.0,5.01,0.00,22.0,20.3,00.0,30.8,23.7,14.8,0000.0,0004.06,0007.98,0003.49
2023-02-26 04:58:00,,0821.0,5.02,0.00,22.0,20.3,00.0,30.8,23.7,14.8,0000.0,0004.10,0008.02,0003.50
2023-02-26 04:59:00,,0821.0,4.98,0.00,22.0,20.3,00.0,30.8,23.7,14.8,0000.0,0004.11,0008.60,0003.51
